Weather in Talas

Turkey     38°41′34″N   35°32′58″E
temp.,
°C
wind,
m/s
gust,
m/s
humid.,
%
clouds,
%
prec.,
mm/h
press.,
hPa
HPBL,
m
10 may, mon
mon1000:00+6e22610 0.0 102237
03:00+4ene22643 0.0 102333
06:00+3ene22650 0.0 102436
09:00+8ne33340 0.0 1022842
12:00+13ne33230 0.0 10181219
15:00+16nne22220 0.0 10161453
18:00+16nw53270 0.0 1014927
21:00+9sw22440 0.0 101619
11 may, tue
tue1100:00+7wnw01530 0.0 101711
03:00+5w11600 0.0 101610
06:00+5sw11660 0.0 101710
09:00+10nw11460 0.0 1016535
12:00+16nw33280 0.0 1013973
15:00+19nw44230 0.0 10111444
18:00+18nnw55280 0.0 10111006
21:00+12ene11460 0.0 101210
12 may, wed
wed1200:00+11e11470 0.0 101210
03:00+10e22470 0.0 101113
06:00+9ene22510 0.0 101216
09:00+16nne21335 0.0 1011521
12:00+21nnw33225 0.0 10091436
15:00+25w45155 0.0 10082665
18:00+24nw23176 0.0 10072001
21:00+17se223890 0.0 100815
13 may, thu
thu1300:00+15ese22412 0.0 100914
03:00+13ne11500 0.0 101012
06:00+13e22525 0.0 101111
09:00+21ne11319 0.0 1010572
12:00+25n12210 0.0 10092365
15:00+27nw44170 0.0 10083165
18:00+26n22180 0.0 10081999
21:00+19se22352 0.0 101116
14 may, fri
fri1400:00+16e12405 0.0 101212
03:00+15ese11457 0.0 101311
06:00+15ese22470 0.0 101311
09:00+23ne12295 0.0 1012582
12:00+27nnw13180 0.0 10102304
15:00+29w45150 0.0 10093415
18:00+28wnw551946 0.0 10092206
21:00+20ssw11370 0.0 101111